BGTL

USAF Thule Airport

Airport
ICAO code
BGTL
IATA Code
THU
Summary
ICAO Region
NAT
ICAO Territory
Location

Thule,

Serving
Thule
Elevation
251 ft
Coordinates
76° 31' 52" N , 68° 42' 24" W
KCC
Airport WX
Low Level Turbulence
Metar
BGTL 270655Z AUTO 03004KT 9999 BKN016 M02/M07 A2982 RMK AO2 BKN V SCT SLP083 T10201069 TSNO $

Description

Military (USA) and civil airport in northwest Greenland.

Climatology

Tundra climate (Köppen climate classification ET) - warmest month has an average temperature of 0 - 10 degrees C.

Runways

Designator Length Width Surface Rops
8/26 3047 43 ASPH No/No
08T/26T 3047 43 ASP No/No

Airport map

Aerial View

SKYbrary Partners:

Safety knowledge contributed by: